SCP
0 0 0 0 0 0 0 0 0 0 0 0 0 0 0 0 0 0 0 0 0 0 0 0 0 0 0 0 0 0 0 0 0 0 0 0 0 0 0 0 0 0 0
0 0 0 0 0 0 0 0 0 0 0 0 0 0 0 0 0 0 0 0 0 0 0 0 0 0 0 0 0 0 0 0 0 0 0 0 0 0 0 0 0 0 0
0 0 0 0 0 0 0 0 0 1 1 0 0 0 0 0 0 0 0 0 0 0 0 0 0 0 0 0 0 0 0 0 0 0 0 0 0 0 0 0 0 0 0
0 0 0 0 0 0 0 0 1 1 1 1 1 0 0 0 0 0 0 0 0 0 0 0 0 0 0 0 0 0 0 0 0 0 0 0 0 0 0 0 0 0 0
0 0 0 0 0 0 0 0 1 1 1 1 1 1 0 0 0 0 0 0 0 0 0 0 0 0 0 0 0 0 0 0 0 0 0 0 0 0 0 0 0 0 0
0 0 0 0 0 0 0 0 1 1 1 1 1 1 0 0 0 0 0 0 0 0 0 0 0 0 0 0 0 0 0 0 0 0 0 0 0 0 0 0 0 0 0
0 0 0 0 0 0 0 1 1 1 1 1 1 1 1 1 0 0 0 0 0 0 0 0 0 0 0 0 0 0 0 0 0 0 0 0 0 0 0 0 0 0 0
0 0 0 0 0 0 0 1 1 1 1 1 1 1 1 1 1 1 0 0 0 0 0 0 0 0 0 0 0 0 0 0 0 0 0 0 0 0 0 0 0 0 0
0 0 0 0 0 0 1 1 1 1 1 1 1 1 1 1 1 1 1 1 0 0 0 0 0 0 0 0 0 0 0 0 0 0 0 0 0 0 0 0 0 0 0
0 0 0 0 0 0 1 1 1 1 1 1 1 1 1 1 1 1 1 1 1 1 1 0 0 0 0 0 0 0 0 0 0 0 0 0 0 0 0 0 0 0 0
0 0 0 0 0 1 1 1 1 1 1 1 1 1 1 1 1 1 1 1 1 1 1 1 0 0 0 0 0 0 0 0 0 0 0 0 0 0 0 0 0 0 0
1 1 1 1 1 1 1 1 1 1 1 1 1 1 1 1 1 1 1 1 1 1 1 1 1 0 0 0 0 0 0 0 0 0 0 0 0 0 0 0 0 0 0
1 1 1 1 1 1 1 1 1 1 1 1 1 1 1 1 1 1 1 1 1 1 1 1 1 1 0 0 0 0 0 0 0 0 0 0 0 0 0 0 0 0 0
1 1 1 1 1 1 1 1 1 1 1 1 1 1 1 1 1 1 1 1 1 1 1 1 1 1 0 0 0 0 0 0 0 0 0 0 0 0 0 0 0 0 0
1 1 1 1 1 1 1 1 1 1 1 1 1 1 1 1 1 1 1 1 1 1 1 1 1 1 1 0 0 0 0 0 0 0 0 0 0 0 0 0 0 0 0
1 1 1 1 1 1 1 1 1 1 1 1 1 1 1 1 1 1 1 1 1 1 1 1 1 1 1 0 0 0 0 0 0 0 0 0 0 0 0 0 0 0 0
1 1 1 1 1 1 1 1 1 1 1 1 1 1 1 1 1 1 1 1 1 1 1 1 1 1 1 0 0 0 0 0 0 0 0 0 0 0 0 0 0 0 0
1 1 1 1 1 1 1 1 1 1 1 1 1 1 1 1 1 1 1 1 1 1 1 1 1 1 1 0 0 0 0 0 0 0 1 0 0 0 0 0 0 0 0
1 1 1 1 1 1 1 1 1 1 1 1 1 1 1 1 1 1 1 1 1 1 1 1 1 1 1 0 0 0 0 0 0 0 0 0 0 0 0 0 0 0 0
1 1 1 1 1 1 1 1 1 1 1 1 1 1 1 1 1 1 1 1 1 1 1 1 1 1 1 0 0 0 0 0 0 0 0 0 0 0 0 0 0 0 0
1 1 1 1 1 1 1 1 1 1 1 1 1 1 1 1 1 1 1 1 1 1 1 1 1 1 0 0 0 0 0 0 0 0 0 0 0 0 0 0 0 0 0
1 1 1 1 1 1 1 1 1 1 1 1 1 1 1 1 1 1 1 1 1 1 1 1 1 0 0 0 0 0 0 0 0 0 0 0 0 0 0 0 0 0 0
1 1 1 1 1 1 1 1 1 1 1 1 1 1 1 1 1 1 1 1 1 1 1 1 0 0 0 0 0 0 0 0 0 0 0 0 0 0 0 0 0 0 0
1 1 1 1 1 1 1 1 1 1 1 1 1 1 1 1 0 0 0 0 0 0 0 0 0 0 0 0 0 0 0 0 0 0 0 0 0 0 0 0 0 0 0
1 1 1 1 1 1 1 1 1 1 1 1 1 0 0 0 0 0 0 0 0 0 0 0 0 0 0 0 0 0 0 0 0 0 0 0 0 0 0 0 0 0 0
1 1 1 1 1 1 1 1 1 1 1 0 0 0 0 0 0 0 0 0 0 0 0 0 0 0 0 0 0 0 0 0 0 0 0 0 0 0 0 0 0 0 0
Wind_Speed
11 11 10 10 10 10 10 10 9 8 7 5 5 5 5 4 4 3 3 3 3 2 2 2 2 2 1 2 3 3 2 2 2 3 3 3 4 3 3 4 3 4 5
11 11 11 11 11 11 11 10 10 10 9 7 5 3 3 3 3 3 3 4 4 4 4 3 3 2 2 2 3 3 3 2 1 3 3 3 3 4 4 3 4 3 3
12 12 12 12 11 11 12 10 11 10 10 9 7 5 4 4 4 4 4 4 4 4 3 3 3 3 3 2 3 4 4 3 2 2 3 3 2 1 3 3 2 2 2
12 12 12 12 12 11 11 11 11 11 10 10 9 9 6 5 4 3 3 4 4 4 4 4 4 4 3 2 4 3 3 4 3 2 2 3 4 4 2 2 2 3 3
12 13 12 12 11 11 10 10 11 11 10 10 10 9 8 6 4 4 4 4 4 5 5 4 4 4 4 3 4 3 4 4 4 3 3 3 3 5 4 3 2 2 2
12 12 11 10 10 10 10 10 11 11 11 11 11 10 9 7 6 5 5 5 4 4 5 5 4 4 4 3 4 4 4 4 4 4 3 3 3 3 3 4 4 2 1
11 11 11 11 10 11 10 10 11 11 12 12 11 11 10 9 8 7 6 6 4 4 4 4 4 4 3 4 4 4 4 4 4 4 4 3 3 3 4 5 4 4 2
10 10 11 11 10 11 11 11 11 11 11 11 11 10 10 8 7 8 6 5 4 4 4 4 4 4 4 4 3 3 3 3 4 4 4 3 3 3 4 4 4 4 3
8 9 9 10 10 10 11 11 11 10 10 10 10 10 10 9 7 6 7 6 5 4 5 5 5 4 4 4 4 3 3 3 4 4 3 3 2 3 3 3 4 4 4
6 7 7 8 8 8 9 9 9 9 9 9 9 8 9 9 8 7 7 5 4 4 4 4 4 4 3 4 4 3 2 3 3 3 3 3 3 2 3 3 3 3 4
5 6 6 7 7 7 7 8 8 8 8 8 8 8 8 8 8 7 7 6 5 5 5 5 4 3 3 3 3 3 2 3 3 2 2 3 3 3 2 2 2 2 2
4 5 6 6 6 6 5 6 7 7 8 8 7 7 7 7 7 7 6 6 6 5 5 4 4 4 3 3 3 3 2 2 2 2 2 3 2 2 3 2 2 2 2
5 5 5 5 5 5 5 5 6 6 6 7 8 7 7 7 7 6 6 6 6 6 5 5 4 3 2 2 2 2 2 1 1 1 1 2 2 2 2 2 2 1 1
5 5 5 5 5 4 4 4 4 5 5 5 6 6 6 6 6 6 6 6 6 5 5 5 4 3 2 2 2 2 1 1 0 1 1 1 2 2 2 1 1 1 1
6 5 5 5 4 4 4 4 4 4 4 5 4 4 5 6 5 5 5 5 5 5 4 4 4 3 3 1 2 2 2 1 1 1 2 3 4 6 4 3 2 1 2
6 5 5 5 4 4 4 4 4 3 4 4 4 3 4 4 5 5 4 5 4 4 4 4 4 3 1 4 2 1 2 2 2 2 1 2 3 4 4 4 5 4 2
5 5 4 4 4 4 4 4 4 3 3 3 3 3 4 4 4 5 5 5 4 4 4 4 3 3 3 5 3 1 1 2 2 2 1 1 3 2 2 3 3 4 4
5 5 4 5 5 5 4 3 3 3 3 3 3 3 4 4 4 4 5 4 4 4 3 3 3 3 4 5 4 2 3 2 2 2 2 2 3 4 2 2 3 4 4
5 4 4 5 4 4 4 3 3 3 3 2 2 2 3 4 4 4 4 4 4 4 4 4 4 4 4 4 3 2 3 3 3 3 4 3 3 5 4 1 2 3 3
5 5 5 5 5 4 4 3 3 3 2 2 2 2 3 3 4 4 3 4 4 4 4 4 4 5 5 5 3 1 2 3 3 3 4 6 5 5 4 1 2 2 2
5 5 5 5 4 4 4 3 3 3 2 2 3 3 2 2 3 3 4 4 5 5 5 5 5 6 5 5 5 4 1 2 3 3 3 4 5 5 5 3 3 2 3
6 5 5 5 4 3 4 4 4 3 2 3 3 3 3 2 3 4 4 4 4 5 5 5 5 4 4 5 5 5 5 4 3 3 3 4 5 6 5 4 4 3 3
5 5 5 5 4 3 3 4 4 3 4 4 4 5 5 5 5 5 5 4 3 3 4 4 4 3 3 5 6 7 7 6 4 4 6 5 4 5 5 5 3 2 2
4 4 5 5 4 4 4 4 4 4 5 5 5 6 6 6 6 5 5 4 3 2 3 3 3 4 3 3 3 4 5 6 5 4 5 4 3 3 4 3 2 3 4
4 4 4 4 4 4 4 4 4 4 5 6 6 6 6 7 7 7 6 5 6 4 3 2 3 3 3 3 5 3 3 3 3 3 3 3 3 3 3 3 4 3 3
4 4 4 4 4 4 4 4 4 4 5 5 5 5 5 5 6 7 8 13 10 12 11 9 5 6 6 7 7 6 6 4 2 2 3 3 3 3 3 3 3 3 3
Wind_Direction
194 193 196 199 197 197 197 199 201 192 195 198 201 197 199 205 205 203 192 208 219 215 237 243 229 252 242 253 254 262 247 259 275 272 264 237 216 220 229 232 238 216 215
194 194 198 201 203 201 201 201 202 198 199 198 207 209 213 213 213 208 191 209 212 218 216 227 238 243 247 248 258 265 277 277 270 288 278 250 202 204 211 213 219 233 223
199 196 199 203 204 204 204 205 206 204 205 199 200 199 200 217 206 200 201 209 212 219 235 227 243 252 254 248 258 256 257 272 262 264 290 302 308 294 176 205 218 224 247
205 202 200 203 205 204 202 204 203 205 204 202 208 210 215 220 216 212 201 201 213 221 220 227 230 243 257 255 255 253 266 265 270 244 246 277 311 301 284 205 190 212 225
205 205 203 202 204 202 199 198 199 201 201 205 208 214 222 224 218 210 206 221 212 221 227 224 232 240 252 259 273 272 270 267 273 278 265 256 250 257 279 290 289 245 224
204 204 203 199 200 200 199 196 194 199 200 203 207 213 220 223 224 220 216 216 211 214 216 224 229 237 248 249 251 256 252 265 277 279 274 268 274 275 270 276 277 274 275
200 199 198 196 196 197 197 196 193 198 200 202 207 210 215 218 220 225 219 226 222 214 209 223 228 242 242 246 248 243 263 258 260 265 272 275 274 286 281 279 282 287 277
196 196 195 194 195 195 195 195 194 199 199 202 206 209 211 216 220 220 232 222 230 229 206 215 225 237 243 241 232 248 248 248 256 263 272 275 276 278 275 278 284 281 276
189 190 190 190 191 191 192 195 193 196 198 202 204 207 210 217 220 214 220 226 221 220 210 215 220 228 232 236 236 245 260 254 252 253 243 253 263 267 276 276 276 279 282
168 176 181 184 185 187 189 193 193 194 196 200 204 203 207 210 213 216 215 220 218 216 213 217 218 225 227 225 234 241 239 243 249 258 273 271 271 274 274 275 272 272 277
154 160 164 168 171 175 178 184 188 188 191 199 202 208 205 203 202 207 210 207 209 205 206 209 216 222 226 226 228 248 248 251 262 268 266 272 292 287 279 272 266 266 265
127 138 146 153 156 160 167 175 181 185 190 190 192 196 199 197 198 201 204 203 203 205 204 205 207 216 220 221 226 237 240 246 265 290 303 292 284 284 291 284 276 276 269
104 115 125 136 142 148 157 167 174 178 185 186 189 190 192 192 197 198 194 200 203 205 203 200 201 204 207 206 216 230 246 257 275 304 324 319 318 309 318 293 282 273 258
106 109 115 120 123 133 148 158 161 166 174 180 184 185 191 190 190 190 187 194 198 200 197 192 189 188 190 191 203 218 225 231 123 38 14 352 338 327 312 305 320 323 299
103 104 107 107 112 118 122 128 135 147 162 169 178 182 188 181 178 179 181 183 189 192 184 179 179 186 190 178 179 199 185 162 133 97 73 60 50 33 12 353 354 343 313
102 99 98 102 107 111 115 115 117 138 156 162 164 163 162 159 162 167 170 174 179 181 172 172 174 182 162 87 73 254 154 142 140 127 112 114 97 79 70 49 35 15 346
93 88 88 90 98 101 107 120 126 138 144 147 151 157 156 152 156 162 160 167 169 168 165 163 158 148 104 92 93 90 158 132 125 122 125 98 83 86 96 115 117 77 52
95 87 85 87 90 97 104 110 120 129 136 144 149 152 153 149 149 154 156 160 154 150 147 143 140 125 104 103 115 132 143 112 102 99 91 76 71 45 22 74 73 66 56
88 87 88 92 90 90 91 101 113 117 120 127 135 137 146 147 148 149 153 151 145 141 135 125 117 111 102 100 122 158 132 119 102 86 67 58 71 31 358 45 64 65 71
83 83 87 91 85 79 85 96 98 95 91 92 105 119 139 154 155 147 147 141 136 127 121 109 100 96 93 78 71 278 147 124 116 100 85 61 51 36 14 45 58 47 28
89 84 82 80 80 88 97 100 87 73 63 74 88 97 110 132 135 125 123 126 125 118 112 105 96 90 87 85 56 19 48 106 116 106 89 67 63 58 38 28 51 21 334
96 91 88 80 74 83 101 100 86 77 72 68 79 85 88 93 110 114 116 120 123 121 119 111 98 90 87 70 70 57 47 33 80 81 78 78 80 78 62 57 38 348 314
95 91 92 87 78 72 85 99 89 82 87 85 81 81 85 84 84 95 104 108 116 124 126 120 111 101 86 81 78 80 75 67 78 77 81 87 98 109 87 65 24 4 35
95 93 90 84 73 65 71 88 96 99 97 88 81 86 86 83 78 73 77 81 83 95 110 111 110 105 96 87 93 99 99 100 103 103 110 118 99 91 82 87 62 50 42
86 83 81 78 76 71 75 89 93 97 100 97 93 92 90 90 82 71 56 62 56 47 61 85 102 109 101 68 62 82 89 93 100 125 127 111 100 86 73 66 55 46 48
86 85 89 89 86 84 80 82 90 99 105 103 100 98 100 99 101 100 85 62 65 64 56 52 65 81 84 93 83 76 74 78 112 124 98 87 81 73 64 61 63 54 37